• En España
  • Lista de países
  • Para 7 días
  • Temperatura del agua
  • Mapa Satelital
  • El tiempo en el mapa
  • Informadores
  • user-avatar
    Iniciar sesión

    Tiempo cada hora Borisovka

    Hoy, 15 Noviembre, Jueves

    Tiempo Temperatura Precipitaciones Viento Presión Humedad
    00:00 -4°C° 0 mm 4 mps 752 mmHg 62%
    01:00 -4°C° 0 mm 4 mps 753 mmHg 65%
    02:00 -4°C° 0 mm 3 mps 753 mmHg 63%
    03:00 -4°C° 0 mm 3 mps 753 mmHg 64%
    04:00 -5°C° 0 mm 3 mps 753 mmHg 66%
    05:00 -5°C° 0 mm 4 mps 753 mmHg 67%
    06:00 -5°C° 0 mm 4 mps 754 mmHg 66%
    07:00 -5°C° 0 mm 4 mps 754 mmHg 65%
    08:00 -5°C° 0 mm 4 mps 754 mmHg 64%
    09:00 -4°C° 0 mm 4 mps 755 mmHg 60%
    10:00 -3°C° 0 mm 4 mps 755 mmHg 57%
    11:00 -2°C° 0 mm 4 mps 756 mmHg 53%
    12:00 -1°C° 0 mm 3 mps 756 mmHg 51%
    13:00 -1°C° 0 mm 3 mps 756 mmHg 50%
    14:00 -1°C° 0 mm 3 mps 756 mmHg 48%
    15:00 -1°C° 0 mm 3 mps 756 mmHg 49%
    16:00 -2°C° 0 mm 3 mps 757 mmHg 51%
    17:00 -4°C° 0 mm 3 mps 757 mmHg 52%
    18:00 -4°C° 0 mm 3 mps 758 mmHg 50%
    19:00 -4°C° 0 mm 3 mps 758 mmHg 48%
    20:00 -4°C° 0 mm 3 mps 758 mmHg 47%
    21:00 -4°C° 0 mm 3 mps 759 mmHg 45%
    22:00 -4°C° 0 mm 3 mps 759 mmHg 44%
    23:00 -5°C° 0 mm 3 mps 759 mmHg 42%

    Mañana, 16 Noviembre, Viernes

    Tiempo Temperatura Precipitaciones Viento Presión Humedad
    00:00 -5°C° 0 mm 3 mps 759 mmHg 40%
    01:00 -5°C° 0 mm 3 mps 760 mmHg 38%
    02:00 -5°C° 0 mm 3 mps 760 mmHg 36%
    03:00 -5°C° 0 mm 3 mps 760 mmHg 35%
    04:00 -5°C° 0 mm 3 mps 760 mmHg 33%
    05:00 -5°C° 0 mm 3 mps 760 mmHg 32%
    06:00 -5°C° 0 mm 3 mps 761 mmHg 32%
    07:00 -5°C° 0 mm 3 mps 761 mmHg 31%
    08:00 -5°C° 0 mm 3 mps 761 mmHg 31%
    09:00 -4°C° 0 mm 3 mps 761 mmHg 29%
    10:00 -2°C° 0 mm 3 mps 762 mmHg 28%
    11:00 -1°C° 0 mm 3 mps 762 mmHg 26%
    12:00 -1°C° 0 mm 3 mps 762 mmHg 26%
    13:00 -1°C° 0 mm 3 mps 762 mmHg 26%
    14:00 0°C° 0 mm 3 mps 762 mmHg 26%
    15:00 -1°C° 0 mm 3 mps 762 mmHg 27%
    16:00 -2°C° 0 mm 3 mps 762 mmHg 28%
    17:00 -4°C° 0 mm 3 mps 762 mmHg 30%
    18:00 -4°C° 0 mm 3 mps 762 mmHg 29%
    19:00 -4°C° 0 mm 3 mps 762 mmHg 28%
    20:00 -4°C° 0 mm 3 mps 762 mmHg 27%
    21:00 -4°C° 0 mm 3 mps 762 mmHg 26%
    22:00 -5°C° 0 mm 3 mps 762 mmHg 26%
    23:00 -5°C° 0 mm 3 mps 762 mmHg 25%

    Pasado mañana, 17 Noviembre, Sábado

    Tiempo Temperatura Precipitaciones Viento Presión Humedad
    00:00 -4°C° 0 mm 2 mps 762 mmHg 24%
    01:00 -4°C° 0 mm 2 mps 762 mmHg 24%
    02:00 -4°C° 0 mm 2 mps 762 mmHg 23%
    03:00 -4°C° 0 mm 2 mps 761 mmHg 23%
    04:00 -4°C° 0 mm 2 mps 761 mmHg 22%
    05:00 -4°C° 0 mm 2 mps 761 mmHg 22%
    06:00 -4°C° 0 mm 2 mps 761 mmHg 21%
    07:00 -4°C° 0 mm 2 mps 761 mmHg 20%
    08:00 -4°C° 0 mm 2 mps 761 mmHg 20%
    09:00 -3°C° 0 mm 2 mps 760 mmHg 18%
    10:00 0°C° 0 mm 1 mps 760 mmHg 17%
    11:00 +1°C° 0 mm 1 mps 760 mmHg 15%
    12:00 +1°C° 0 mm 1 mps 759 mmHg 16%
    13:00 +2°C° 0 mm 1 mps 758 mmHg 17%
    14:00 +2°C° 0 mm 1 mps 758 mmHg 18%
    15:00 +1°C° 0 mm 1 mps 757 mmHg 19%
    16:00 0°C° 0 mm 1 mps 757 mmHg 19%
    17:00 -1°C° 0 mm 1 mps 756 mmHg 19%
    18:00 -1°C° 0 mm 1 mps 756 mmHg 19%
    19:00 -1°C° 0 mm 1 mps 755 mmHg 19%
    20:00 -1°C° 0 mm 1 mps 755 mmHg 19%
    21:00 -3°C° 0 mm 2 mps 754 mmHg 19%
    22:00 -3°C° 0 mm 2 mps 753 mmHg 20%
    23:00 -3°C° 0 mm 2 mps 753 mmHg 20%

    18 Noviembre, Domingo

    Tiempo Temperatura Precipitaciones Viento Presión Humedad
    00:00 -3°C° 0 mm 2 mps 752 mmHg 21%
    01:00 -5°C° 0 mm 3 mps 751 mmHg 22%
    02:00 -5°C° 0 mm 3 mps 751 mmHg 23%
    03:00 -5°C° 0 mm 3 mps 750 mmHg 27%
    04:00 -5°C° 0 mm 3 mps 749 mmHg 32%
    05:00 -5°C° 0 mm 3 mps 748 mmHg 37%
    06:00 -5°C° 0.1 mm 3 mps 748 mmHg 43%
    07:00 -5°C° 0.1 mm 3 mps 748 mmHg 50%
    08:00 -4°C° 0.1 mm 3 mps 747 mmHg 57%
    09:00 -4°C° 0.1 mm 3 mps 747 mmHg 59%
    10:00 -4°C° 0.1 mm 3 mps 747 mmHg 62%
    11:00 -2°C° 0.1 mm 3 mps 747 mmHg 64%
    12:00 -2°C° 0.1 mm 3 mps 746 mmHg 63%
    13:00 -2°C° 0.1 mm 2 mps 746 mmHg 63%
    14:00 -2°C° 0.1 mm 2 mps 746 mmHg 62%
    15:00 -2°C° 0 mm 2 mps 746 mmHg 62%
    16:00 -2°C° 0 mm 2 mps 746 mmHg 61%
    17:00 -3°C° 0 mm 2 mps 746 mmHg 61%
    18:00 -3°C° 0.1 mm 2 mps 746 mmHg 60%
    19:00 -3°C° 0.1 mm 2 mps 746 mmHg 58%
    20:00 -3°C° 0.1 mm 2 mps 747 mmHg 57%
    21:00 -3°C° 0 mm 2 mps 747 mmHg 54%
    22:00 -3°C° 0 mm 2 mps 747 mmHg 51%
    23:00 -3°C° 0 mm 2 mps 747 mmHg 48%

    19 Noviembre, Lunes

    Tiempo Temperatura Precipitaciones Viento Presión Humedad
    00:00 -3°C° 0 mm 2 mps 748 mmHg 46%
    01:00 -3°C° 0 mm 2 mps 748 mmHg 44%
    02:00 -4°C° 0 mm 2 mps 748 mmHg 42%
    03:00 -4°C° 0 mm 2 mps 749 mmHg 41%
    04:00 -4°C° 0 mm 2 mps 749 mmHg 41%
    05:00 -4°C° 0 mm 2 mps 749 mmHg 41%
    06:00 -4°C° 0 mm 2 mps 750 mmHg 42%
    07:00 -5°C° 0 mm 2 mps 750 mmHg 43%
    08:00 -6°C° 0 mm 3 mps 751 mmHg 44%
    09:00 -5°C° 0 mm 3 mps 751 mmHg 43%
    10:00 -4°C° 0 mm 3 mps 752 mmHg 42%
    11:00 -2°C° 0 mm 3 mps 752 mmHg 41%
    12:00 -2°C° 0 mm 3 mps 752 mmHg 43%
    13:00 -2°C° 0 mm 3 mps 753 mmHg 45%
    14:00 -1°C° 0 mm 3 mps 753 mmHg 46%
    15:00 -2°C° 0 mm 3 mps 753 mmHg 49%
    16:00 -4°C° 0 mm 3 mps 753 mmHg 52%
    17:00 -4°C° 0 mm 3 mps 753 mmHg 54%
    18:00 -5°C° 0 mm 3 mps 754 mmHg 55%
    19:00 -5°C° 0 mm 3 mps 754 mmHg 56%
    20:00 -5°C° 0 mm 3 mps 754 mmHg 57%
    21:00 -5°C° 0 mm 3 mps 754 mmHg 57%
    22:00 -5°C° 0 mm 3 mps 754 mmHg 58%
    23:00 -5°C° 0 mm 3 mps 754 mmHg 58%

    20 Noviembre, Martes

    Tiempo Temperatura Precipitaciones Viento Presión Humedad
    00:00 -6°C° 0 mm 3 mps 755 mmHg 59%
    01:00 -6°C° 0 mm 3 mps 755 mmHg 59%
    02:00 -6°C° 0 mm 3 mps 755 mmHg 59%
    03:00 -6°C° 0 mm 3 mps 755 mmHg 58%
    04:00 -6°C° 0 mm 3 mps 755 mmHg 58%
    05:00 -6°C° 0 mm 3 mps 755 mmHg 57%
    06:00 -6°C° 0 mm 3 mps 755 mmHg 56%
    07:00 -6°C° 0 mm 3 mps 755 mmHg 55%
    08:00 -6°C° 0 mm 3 mps 755 mmHg 54%
    09:00 -5°C° 0 mm 3 mps 755 mmHg 50%
    10:00 -4°C° 0 mm 3 mps 755 mmHg 46%
    11:00 -2°C° 0 mm 3 mps 754 mmHg 41%
    12:00 -2°C° 0 mm 3 mps 754 mmHg 42%
    13:00 -2°C° 0 mm 3 mps 754 mmHg 43%
    14:00 -2°C° 0 mm 2 mps 754 mmHg 44%
    15:00 -2°C° 0 mm 2 mps 754 mmHg 47%
    16:00 -4°C° 0 mm 3 mps 754 mmHg 49%
    17:00 -5°C° 0 mm 3 mps 754 mmHg 51%
    18:00 -4°C° 0 mm 2 mps 754 mmHg 51%
    19:00 -4°C° 0 mm 2 mps 754 mmHg 51%
    20:00 -4°C° 0 mm 2 mps 754 mmHg 51%
    21:00 -4°C° 0 mm 2 mps 754 mmHg 51%
    22:00 -4°C° 0 mm 2 mps 754 mmHg 51%
    23:00 -4°C° 0 mm 2 mps 754 mmHg 51%
    Mostrar más